Regional Weather Roundup
Issued by NWS

Home | Current Version | Previous Version | Graphics & Text | Print | Product List | Glossary Off
Versions: 1 2 3 4 5 6 7 8 9 10 11 12 13 14 15 16 17 18 19 20 21 22 23 24 25 26 27 28 29 30 31 32 33 34 35 36 37 38 39 40 41 42 43 44 45 46 47 48 49 50

000
ASUS43 KTOP 262308
RWRKS

WEATHER ROUNDUP FOR KANSAS
NATIONAL WEATHER SERVICE GOODLAND KS
600 PM CDT MON SEP 26 2016

NOTE:  "FAIR" INDICATES FEW OR NO CLOUDS BELOW 12,000 FEET WITH NO
SIGNIFICANT WEATHER AND/OR OBSTRUCTIONS TO VISIBILITY.

KSZ001>006-013>018-027>032-041>047-270000-
NORTHWEST KANSAS

CITY           SKY/WX    TMP DP  RH WIND       PRES   REMARKS
GOODLAND       SUNNY     78  37  22 N13       30.22F
HAYS           SUNNY     79  36  21 NW5       30.17F
HILL CITY      SUNNY     81  41  24 N3        30.16F
RUSSELL        SUNNY     77  38  24 CALM      30.16F
$$

KSZ061>065-074>080-084>089-270000-
SOUTHWEST KANSAS

CITY           SKY/WX    TMP DP  RH WIND       PRES   REMARKS
DODGE CITY     SUNNY     78  31  17 SW7       30.21F
ELKHART          N/A     77  36  22 NW2         N/A
GARDEN CITY    SUNNY     78  31  17 N3        30.21F
GREAT BEND     SUNNY     75  36  23 SW8       30.17F
LIBERAL        SUNNY     75  32  20 CALM      30.24F
PRATT          SUNNY     72  33  23 CALM      30.20F
$$

KSZ066>073-081>083-090>101-270000-
SOUTHEAST KANSAS

CITY           SKY/WX    TMP DP  RH WIND       PRES   REMARKS
CHANUTE        SUNNY     73  41  31 N6        30.17F
COFFEYVILLE    SUNNY     74  42  31 N8        30.17F
HUTCHINSON     SUNNY     75  36  24 CALM      30.19F
MEDICINE LODGE   N/A     72  36  26 SE3       30.20F
NEWTON         SUNNY    N/A N/A N/A CALM      30.20F
PARSONS        SUNNY     72  40  31 N7        30.18F
WICHITA INTL   MOSUNNY   74  41  30 NW7       30.19F
WICHITA JABRA  SUNNY     72  43  35 NW3       30.19F
WICHITA MCCONL SUNNY     72  40  31 N3        30.19F
WINFIELD       SUNNY     73  43  33 NW5       30.20F
$$

KSZ007>012-019>026-033>040-048>060-102>105-270000-
NORTHEAST KANSAS

CITY           SKY/WX    TMP DP  RH WIND       PRES   REMARKS
CONCORDIA      SUNNY     75  39  27 W8        30.15F
EMPORIA        SUNNY     71  44  37 NW5       30.18F
LAWRENCE       SUNNY     72  45  37 NW5       30.15F
MANHATTAN      SUNNY     74  43  32 W7        30.16F
MARYSVILLE     SUNNY     73  41  31 W7        30.13F
OLATHE IND     SUNNY     70  43  37 NW6       30.16F
OLATHE EXE     SUNNY     69  41  36 W7        30.16F
SALINA         SUNNY     76  39  26 W5        30.17F
TOPEKA BILLARD SUNNY     74  43  32 W5        30.15F
TOPEKA FORBES  SUNNY     73  44  35 W9        30.16F
$$




USA.gov is the U.S. government's official web portal to all federal, state and local government web resources and services.